Regional Weather Roundup
Issued by NWS

Home | Current Version | Previous Version | Text Only | Print | Product List | Glossary On
Versions: 1 2 3 4 5 6 7 8 9 10 11 12 13 14 15 16 17 18 19 20 21 22 23 24 25 26 27 28 29 30 31 32 33 34 35 36 37 38 39 40 41 42 43 44 45 46 47 48 49 50
000
ASUS46 KLOX 222312
RWRCA

SOUTHERN CALIFORNIA WEATHER ROUNDUP
NATIONAL WEATHER SERVICE OXNARD CALIFORNIA
300 PM PST MON DEC 22 2014

NOTE: "FAIR" INDICATES FEW OR NO CLOUDS BELOW 12,000 FEET WITH NO
SIGNIFICANT WEATHER AND/OR OBSTRUCTIONS TO VISIBILITY.

  -  STATIONS PRECEEDED BY AN ASTERISK (*) ARE NOT NWS OR FAA
     STATIONS AND ARE NOT SUBJECT TO NWS AND FAA QUALITY CONTROL.

CAZ041-042-087-230000-
LA AND ORANGE COUNTY COASTAL AREAS


CITY           SKY/WX    TMP DP  RH WIND       PRES   REMARKS
L.A. DOWNTOWN  SUNNY     72  53  51 CALM      29.93F
L.A. AIRPORT   MOSUNNY   62  58  86 W8        29.95F
LONG BEACH     SUNNY     71  57  61 S7        29.94F

CITY           SKY/WX    TMP DP  RH WIND       PRES   REMARKS
AVALON           N/A    N/A N/A N/A MISG        N/A
FULLERTON      SUNNY     73  55  53 SW8       29.93F HAZE
*GETTY CENTER    N/A     72  48  43 SW7         N/A
HAWTHORNE      SUNNY     68  57  68 W6        29.95F
*LEO CARRILLO    N/A     70  59  67 SW3         N/A
*LOS ALAMITOS  SUNNY     68  59  72 S7        29.94F
*REDONDO BEACH   N/A     62  58  85 W7        29.93F
SANTA ANA      SUNNY     72  54  53 SW7       29.95F
STA MONICA APT MOSUNNY   66  58  75 SW9       29.95F HAZE
TORRANCE       MOSUNNY   66  61  82 NW12      29.95F
*UCLA            N/A     68  55  64 W3        29.92F

$$

CAZ547-548-048-230000-
LA COUNTY VALLEYS AND INLAND EMPIRE


CITY           SKY/WX    TMP DP  RH WIND       PRES   REMARKS
BURBANK        SUNNY     76  51  41 VRB5      29.94F
VAN NUYS       SUNNY     79  40  24 N9        29.94F

CITY           SKY/WX    TMP DP  RH WIND       PRES   REMARKS
CORONA AIRPORT CLEAR     75  50  41 W7        29.95F
*CHATSWORTH      N/A     80  37  21 N6        29.91S
CHINO          SUNNY     77  51  40 SW7       29.95F
MARCH AFB      SUNNY     74  46  37 VRB5      29.97F
*NORTHRIDGE      N/A     79  30  17 NW6G15      N/A
ONTARIO        SUNNY     77  47  34 W6        29.95F
*PASADENA        N/A     75  52  43 CALM        N/A
RIVERSIDE      SUNNY     74  48  39 CALM      29.95F
SAN BERNARDINO SUNNY    N/A N/A N/A SW5       29.96F
*SAN GABRIEL     N/A     76  43  31 SW3       29.91S
*SAN RAFAEL HI   N/A     75  48  37 E2          N/A
*SAUGUS          N/A     73  40  29 NW13        N/A
*WHITEMAN AP   SUNNY     77  46  33 E7        29.98F
*WHITTIER HILL   N/A     76  51  40 SW5         N/A
*WOODLAND HILL   N/A     82  34  17 N3          N/A

$$

CAZ054-055-230000-
LA AND SAN BERNARDINO COUNTY MOUNTAINS


CITY           SKY/WX    TMP DP  RH WIND       PRES   REMARKS
*ACTON           N/A     69  42  37 N12         N/A
*BIG BEAR AIRP CLEAR     59  19  21 N5        30.22S
*BIG PINES       N/A     57  22  25 CALM        N/A
MT WILSON NWS    N/A     70  21  16 N3          N/A
SANDBERG       MOSUNNY   53  42  66 VRB5G17   30.17R
*WARM SPRINGS    N/A     63  36  37 W14         N/A

$$

CAZ028-029-059-060-099-230000-
ANTELOPE VALLEY AND SURROUNDING AREAS


CITY           SKY/WX    TMP DP  RH WIND       PRES   REMARKS
LANCASTER      SUNNY     63  45  51 W22G29    30.07S
PALMDALE       SUNNY     65  44  46 NW16      30.07F
*POPPY PARK      N/A     62  45  53 W21G35      N/A

CITY           SKY/WX    TMP DP  RH WIND       PRES   REMARKS
29 PALMS       SUNNY     74  36  25 NW14      30.05R
BARSTOW/DAGGET SUNNY     67  45  45 NW17      30.03F
BISHOP         SUNNY     72  27  18 N26G37    30.10R
CHINA LAKE     SUNNY     59  43  55 CALM      30.05S
EDWARDS AFB    SUNNY     67  48  51 SW10      30.04F
MOJAVE         FAIR      64  41  42 W7        30.07F
NEEDLES        SUNNY     72  40  31 CALM      29.93R
VICTORVILLE    SUNNY     66  43  42 W8        30.07F

$$

CAZ039-040-230000-
VENTURA AND SANTA BARBARA COUNTY COAST


CITY           SKY/WX    TMP DP  RH WIND       PRES   REMARKS
CAMARILLO      SUNNY     74  51  44 W6        29.94F
NWS OXNARD       N/A     74  49  39 CALM      29.94S
OXNARD AIRPORT SUNNY     70  57  63 NW6       29.95F
*POINT MUGU    SUNNY     70  58  65 W8        29.96S
SBA APT/GOLETA SUNNY     80  50  34 SW5       29.93F
*SANTA BARBARA   N/A     77  55  45 W2        30.01F
*VENTURA         N/A     76  48  36 SW5       29.99S

$$

CAZ044-045-230000-
VENTURA COUNTY VALLEYS


CITY           SKY/WX    TMP DP  RH WIND       PRES   REMARKS
*SIMI VALLEY     N/A     79  55  43 CALM      29.90S
*OJAI            N/A     76  50  39 CALM      29.90F
*FILLMORE        N/A     79  49  35 CALM      29.84S

$$

CAZ053-230000-
VENTURA COUNTY MOUNTAINS


CITY           SKY/WX    TMP DP  RH WIND       PRES   REMARKS
*LOCKWOOD VLY    N/A     59  39  47 MISG        N/A
*ROSE VALLEY     N/A     77  39  25 MISG        N/A

$$

CAZ034-035-036-230000-
CENTRAL COAST AND SANTA YNEZ VALLEY


CITY           SKY/WX    TMP DP  RH WIND       PRES   REMARKS
SAN LUIS OBISP MOSUNNY   69  52  54 N8        30.09F
SANTA MARIA    SUNNY     72  51  47 N17       30.07F

CITY           SKY/WX    TMP DP  RH WIND       PRES   REMARKS
*CAL POLY SLO    N/A     70  55  60 W6G12       N/A
*LOMPOC        SUNNY     73  50  43 NW13G18   30.05S
*PISMO BEACH     N/A     71  54  54 NW3       30.09R
*SANTA YNEZ    FAIR      75  43  31 NW12G21   29.99S

$$

CAZ037-038-051-230000-
SAN LUIS OBISPO COUNTY INTERIOR AND CUYAMA VALLEY


CITY           SKY/WX    TMP DP  RH WIND       PRES   REMARKS
*CUYAMA          N/A     59  50  70 CALM      30.14F
PASO ROBLES    MOSUNNY   65  54  67 E13       30.13F

$$

CAZ032-033-061-230000-
SOUTHERN DESERTS


CITY           SKY/WX    TMP DP  RH WIND       PRES   REMARKS
BLYTHE         SUNNY     71  48  43 S5        29.90F
IMPERIAL       SUNNY     75  48  38 CALM      29.88F
PALM SPRINGS   SUNNY     76  45  33 E6        29.92F
THERMAL        SUNNY     71  47  42 E6        29.89F

$$

ELSEWHERE ACROSS THE WESTERN UNITED STATES AND MEXICO


CITY           SKY/WX    TMP DP  RH WIND       PRES   REMARKS
DENVER, CO     CLOUDY    30  26  85 NW13      29.71F WCI  20
GRAND CANYON,  SUNNY     50  32  50 NW12G21   30.00S
HONOLULU, HI   PTSUNNY   73  66  78 NW12      29.99F
KAHULUI, MAUI  MOSUNNY   81  66  61 N13       29.96F
LAKE TAHOE, CA SUNNY     55  32  41 VRB3      30.30F
LAS VEGAS, NV  MOSUNNY   74  36  25 N8        29.93S
MAMMOTH LAKES, FAIR      57  27  30 N12G18    30.30R
MEXICO CITY, M CLOUDY    64  36  34 SE14      30.10S
PHOENIX, AZ    SUNNY     65  42  43 W6        29.89S
PORTLAND, OR   PTSUNNY   55  46  71 CALM      30.36S
RENO, NV       PTSUNNY   59  38  45 N8        30.30R
SALT LAKE CITY MOCLDY    44  29  55 NW25G35   30.00R WCI  35
SAN DIEGO, CA  SUNNY     70  49  47 NW9       29.96S
SAN FRANCISCO, MOSUNNY   63  58  83 CALM      30.19F
SAN JOSE, CA   MOSUNNY   63  54  72 NW8       30.19S
SEATTLE, WA    MOCLDY    49  41  74 SW3       30.38R
TIJUANA, MEX   SUNNY     70  50  49 NW14      29.98S

$$

STATION/POSITION TIME  TEMP    WIND        PRES    VSBY  WAVE
                       AIR SEA DIR/SP/G                  HT/PER
                 (UTC) (F)     (DEG/KT/KT) (MB)    (MI)  (FT/S)
POINT ARGUELLO B NOT AVBL
WEST SANTA BARBA 2300   66 62  330/ 25/ 29 1014.1F        10/13
POINT CONCEPTION NOT AVBL
EAST SANTA BARBA NOT AVBL
SANTA MONICA BAY 2300   65 65  230/  4/  6 1014.6F         5/14


USA.gov is the U.S. government's official web portal to all federal, state and local government web resources and services.